STARLINK-2449 (48112 NORAD) Tracking and Keplerian Element Data

This shows tracking and keplerian element data for the satellite.

Feedback or suggestion? Click here.




ElementValue
Catalog48112
NameSTARLINK-2449
Epoch Orbit1296
Epoch Day173.76568124
Epoch Year2021
RAAN342.1119
Inclination53.0586
Eccentricity0.0001734
Argument of Perigee90.4027
Mean Anonmoly269.716
Mean Motion15.06394507
Decay Rate-1.156E-05
L11 48112U 21027W 21173.76568124 -.00001156 00000-0 -58721-4 0 9993
L22 48112 53.0586 342.1119 0001734 90.4027 269.7160 15.06394507 12962

Live tracking and technical data element details for STARLINK-2449 (NORAD 48112). STARLINK-2449 can be tracked NOW for your location showing map with azimuth and elevation plus other details from your city location.

Track the satellite on the map from your city or location and see movement details for azimuth, elevation, latitude, longitude, range, height, and movement on the map or in text.







IsCatalogInMostPopularTable: catalog: 48112, numindb: 33
Update: records affected: 1



GetName: 48112 STARLINK-2449

Hit Count: updated at: Thu, 24 Jun 2021 02:41:02 GMT